www.pogodaiklimat.ru

Погода и климат >> Архив погоды >> Иран >> Kish Island


ПОГОДА в Kish Island

  • Прогноз погоды в Kish Island
  • Монитор погоды в Kish Island
  • Климат города

АРХИВ ПОГОДЫ в Kish Island

Время (UTC), дата Ветер
(напр.,м/с)
 
Видим.   Явления Облачность Т
(С)
Тd
(С)
f
(%)
Тe
(С)
Тes
(С)
Комфортность P
(гПа)
Po
(гПа)
Тmin
(С)
Tmax
(С)
R
(мм)
R24
(мм)
S
(см)
09 11.08 ЮВ 9 7000 м пыльный позёмок 1/0
[Ci fib]
+39.0 +25.9 48 +54 +56 опасность
перегрева
998.8 995.5
12 11.08 Ю 6 8000 м мгла 3/1 900 м
[Cu hum Ci fib]
+37.8 +27.3 55 +56 +59 опасность
перегрева
998.1 994.8
15 11.08 СВ 3 8000 м мгла 3/0
[Ac trans]
+37.0 +25.2 51 +51 +51 опасность
перегрева
998.3 995.0 +39.2
18 11.08 штиль 0 7000 м мгла 1/0
[Ac trans]
+35.2 +24.7 55 +48 +48 опасность
перегрева
998.8 995.5
21 11.08 С 3 7000 м мгла 3/1 600 м
[Cu hum Ac trans]
+33.2 +27.5 72 +52 +52 опасность
перегрева
998.4 995.1
00 12.08 В 3 7000 м дымка 8/8 1050 м
[Sc]
+32.8 +29.1 81 +57 +57 опасность
перегрева
998.5 995.2
03 12.08 ЮВ 4 6000 м дымка 8/1 1050 м
[Sc Ac trans]
+32.8 +30.4 87 +61 +61 опасность
перегрева
999.4 996.1 +32.4
06 12.08 ЮВ 6 6000 м мгла 1/0
[Ci fib]
+36.0 +28.5 65 +58 +63 опасность
перегрева
1000.8 997.5
09 12.08 ЮВ 3 7000 м мгла ясно +38.2 +26.2 51 +54 +71 опасность
перегрева
999.8 996.6
12 12.08 Ю 4 8000 м мгла 1/1 600 м
[Cu hum]
+37.6 +28.5 60 +59 +64 опасность
перегрева
998.3 995.1
15 12.08 З 4 6000 м мгла 1/1 1000 м
[Sc Ac trans Ci fib]
+34.4 +29.9 78 +61 +61 опасность
перегрева
998.3 995.1 +38.8
18 12.08 З 3 5000 м дымка ясно +33.6 +30.4 83 +62 +62 опасность
перегрева
998.7 995.5
21 12.08 СЗ 2 5000 м дымка ясно +33.2 +30.8 87 +63 +63 опасность
перегрева
997.6 994.4
00 13.08 штиль 0 3000 м дымка ясно +32.6 +30.8 90 +62 +62 опасность
перегрева
997.0 993.8
03 13.08 ЮВ 3 2500 м дымка 3/3 900 м
[Sc diur, vesp]
+31.8 +31.4 98 +64 +64 опасность
перегрева
998.6 995.3 +31.6
06 13.08 ЮВ 7 7000 м пыльный позёмок 4/0
[Ac trans Ci fib]
+36.0 +30.9 75 +66 +69 опасность
перегрева
1000.1 996.8
09 13.08 ЮЗ 4 6000 м мгла 4/3 900 м
[Cu hum Ci fib]
+37.4 +31.4 72 +69 +79 опасность
перегрева
1000.1 996.8
12 13.08 З 5 5000 м мгла 3/1 1050 м
[Sc Ac trans]
+37.2 +28.7 62 +60 +63 опасность
перегрева
998.8 995.5
15 13.08 З 4 6000 м мгла 8/3 1050 м
[Sc Ac trans]
+35.8 +26.8 60 +53 +53 опасность
перегрева
998.4 995.1 +38.2
18 13.08 СЗ 3 5000 м мгла 3/0
[Ci sp]
+34.2 +26.8 65 +51 +51 опасность
перегрева
998.7 995.4
21 13.08 штиль 0 5000 м мгла 3/0
[Ci sp]
+32.6 +28.0 77 +53 +53 опасность
перегрева
998.4 995.2
00 14.08 В 2 5000 м дымка 6/3 1050 м
[Sc Ac trans]
+32.4 +29.5 85 +58 +58 опасность
перегрева
998.9 995.6
03 14.08 ЮВ 4 4000 м дымка 8/1 900 м
[Sc Cc]
+33.6 +30.2 82 +61 +62 опасность
перегрева
1000.3 997.0 +32.0
06 14.08 ЮВ 5 6000 м мгла 3/1 900 м
[Cu hum Ci fib]
+35.4 +28.7 68 +58 +64 опасность
перегрева
1001.8 998.5
09 14.08 ЮЗ 4 7000 м мгла 1/1 600 м
[Cu hum]
+38.4 +25.5 48 +52 +65 опасность
перегрева
1001.4 998.2
12 14.08 ЮЗ 3 7000 м мгла ясно +38.8 +26.3 49 +54 +61 опасность
перегрева
999.4 996.1
15 14.08 З 5 7000 м мгла 6/4 900 м
[Sc Ac trans Ci fib]
+36.4 +25.7 54 +51 +51 опасность
перегрева
999.1 995.8 +39.6
18 14.08 ЮВ 3 6000 м мгла 6/3 900 м
[Sc Ac trans Ci fib]
+35.8 +27.0 61 +54 +54 опасность
перегрева
999.0 995.7
21 14.08 ЮВ 6 5000 м мгла 6/3 900 м
[Sc Ac trans Ci fib]
+35.4 +29.4 71 +60 +60 опасность
перегрева
999.8 996.5
00 15.08 ЮВ 6 7000 м мгла 9/1 1050 м
[Sc Ac trans Ci fib]
+34.0 +28.1 71 +55 +55 опасность
перегрева
999.7 996.5
03 15.08 В 7 7000 м пыльный позёмок 3/0
[Ac trans Ci fib]
+34.8 +27.6 66 +54 +54 опасность
перегрева
1001.6 998.3 +33.6
06 15.08 В 7 7000 м пыльный позёмок 1/1 900 м
[Cu hum]
+36.8 +27.3 58 +55 +59 опасность
перегрева
1003.0 999.7
09 15.08 ЮВ 6 5000 м мгла 4/0
[Ac trans Cc]
+37.2 +28.1 60 +58 +65 опасность
перегрева
1002.3 999.0
12 15.08 Ю 4 3000 м мгла ясно +37.4 +26.5 54 +54 +60 опасность
перегрева
1000.6 997.3
15 15.08 Ю 4 3000 м мгла ясно +35.0 +26.5 62 +52 +52 опасность
перегрева
1000.3 997.1 +37.8
18 15.08 В 3 4000 м мгла ясно +33.6 +27.3 70 +53 +53 опасность
перегрева
1001.2 997.9
21 15.08 ЮВ 4 4000 м мгла ясно +33.0 +27.0 71 +51 +51 опасность
перегрева
1001.3 998.0
00 16.08 В 4 6000 м мгла 1/1 900 м
[Sc]
+33.2 +27.8 73 +53 +53 опасность
перегрева
1001.5 998.2
03 16.08 В 3 6000 м мгла 5/0
[Cc]
+33.2 +26.6 68 +50 +51 опасность
перегрева
1002.8 999.5 +33.0
06 16.08 ЮВ 6 6000 м мгла 1/0
[Ci fib]
+35.6 +27.2 62 +54 +60 опасность
перегрева
1004.3 1001.0
09 16.08 Ю 7 5000 м пыльный позёмок 1/1 600 м
[Cu hum Ci fib]
+36.8 +26.4 55 +53 +58 опасность
перегрева
1003.6 1000.3
12 16.08 ЮЗ 7 4000 м пыльный позёмок ясно +35.8 +27.7 63 +55 +58 опасность
перегрева
1001.8 998.5
15 16.08 З 3 6000 м мгла ясно +33.8 +27.3 69 +53 +53 опасность
перегрева
1000.9 997.6 +37.2
18 16.08 В 5 6000 м мгла ясно +33.6 +28.1 73 +55 +55 опасность
перегрева
1003.3 1000.0
21 16.08 штиль 0 6000 м мгла ясно +32.2 +27.9 78 +52 +52 опасность
перегрева
1001.8 998.5
00 17.08 штиль 0 6000 м дымка 1/1 900 м
[Sc]
+32.2 +28.3 80 +54 +54 опасность
перегрева
1001.9 998.6
03 17.08 СВ 2 5000 м дымка ясно +31.8 +28.6 83 +54 +55 опасность
перегрева
1002.0 998.7 +31.6
06 17.08 ЮЗ 5 7000 м мгла ясно +37.0 +26.2 54 +53 +60 опасность
перегрева
1002.8 999.5
09 17.08 ЮЗ 6 6000 м мгла ясно +37.4 +28.8 62 +60 +68 опасность
перегрева
1002.7 999.4
12 17.08 З 4 7000 м мгла ясно +37.6 +25.8 51 +52 +58 опасность
перегрева
1000.8 997.5
15 17.08 З 4 6000 м мгла ясно +35.2 +26.7 62 +53 +53 опасность
перегрева
999.9 996.6 +38.0
18 17.08 З 4 6000 м мгла ясно +33.6 +28.8 76 +57 +57 опасность
перегрева
1000.5 997.2
21 17.08 З 4 6000 м дымка ясно +32.8 +29.1 81 +57 +57 опасность
перегрева
1000.3 997.0
00 18.08 З 2 5000 м дымка 1/1 600 м
[Cu hum]
+31.8 +29.4 87 +56 +56 опасность
перегрева
999.3 996.0
03 18.08 З 3 3500 м дымка 5/0
[Ac trans Ci fib]
+32.0 +29.9 89 +58 +59 опасность
перегрева
1001.1 997.8 +31.0
06 18.08 СЗ 5 4000 м мгла ясно +35.4 +29.9 73 +62 +69 опасность
перегрева
1002.3 999.0

 

Местоположение метеостанции Kish Island (Иран): широта 26.50 долгота 53.98 высота над уровнем моря 30 м.

В архиве по умолчанию представлена погода в Kish Island за последнюю неделю. Архивные данные за месяц целиком и за предыдущие месяцы, начиная с января 2011 года, Вы можете получить, выбрав интересующий диапазон дат из раскрывающегося списка и нажав кнопку "Ввод!".

Внимание! Время в таблицах - всемирное. Для получения местного времени необходимо прибавить поправку, которая в Kish Island равна 3.5 ч.

Смотрите также архив погоды в соседних городах и на ближайших метеорологических станциях:

Погода в Bandar Lengeh (Иран) (85 км)
Погода в Sirri Island (Иран) (87 км)
Погода в Abu Musa Island (Иран) (113 км)
Погода в Dubai (ОАЭ) (194 км)
Погода в Sharjah (ОАЭ) (202 км)
Погода в Dubai Al Maktoum Int Airport (ОАЭ) (214 км)
Погода в Ras Al Khaimah Int Airport (ОАЭ) (218 км)
Погода в Khasab Airport (Оман) (227 км)
Погода в Khasab (Оман) (228 км)
Погода в Abu Dhabi Bateen Airport (ОАЭ) (235 км)

Пояснения к столбцам:

Ветер - указаны скорость ветра в м/с - средняя за 10 мин, порывы в срок и между сроками (в фигурных скобках) и направление, откуда дует ветер: С - северный, СВ - северо-восточный, В - восточный, ЮВ - юго-восточный, Ю - южный, ЮЗ - юго-западный, З - западный, СЗ - северо-западный.
Видимость - горизонтальная дальность видимости в метрах или километрах. При видимости от 1 до 10 км при отсутствии осадков обычно наблюдается дымка, при ухудшении видимости до 1 км и менее - туман. В сухую погоду видимость может ухудшаться дымом, пылью или мглою.
Явления - указаны атмосферные явления, наблюдавшиеся в срок или в последний час перед сроком; фигурными скобками обозначены явления, наблюдавшиеся между сроками (за 1-3 часа до срока); квадратными скобками обозначены град или гололедные отложения с указанием их диаметра в мм.
Облачность - указаны через наклонную черту общая и нижняя облачность в баллах и высота нижней границы облаков в метрах; квадратными скобками обозначены формы облаков: Ci - перистые, Cs - перисто-слоистые, Cc - перисто-кучевые, Ac - высококучевые, As - высокослоистые, Sc - слоисто-кучевые, Ns - слоисто-дождевые, Cu - кучевые, Cb - кучево-дождевые. Подробнее классификацию облаков см. в Атласе облаков (PDF).
T - Температура воздуха - температура, измеренная на высоте 2 м над землей.
Td - Температура точки росы - температура, при понижении до которой содержащийся в воздухе водяной пар достигнет насыщения.
f - Относительная влажность воздуха - влажноcть воздуха, измеренная на высоте 2 м над землей.
Te - Эффективная температура - температура, которую ощущает одетый по сезону человек в тени. Характеристика душности погоды. При расчете учитывается влияние влажности воздуха и скорости ветра на теплоощущения человека.
Tes - Эффективная температура на солнце - температура, которую ощущает человек, с поправкой на солнечный нагрев. Характеристика знойности погоды. Зависит от высоты солнца над горизонтом, облачности и скорости ветра. Ночью, в пасмурную погоду, а также при ветре 12 м/с и более поправка равна нулю.
P - Атмосферное давление - приведенное к уровню моря атмосферное давление.
Po - Атмосферное давление - измеренное на уровне метеостанции атмосферное давление.
Tmin - Минимальная температура - минимум температуры воздуха на высоте 2 м над землей.
Tmax - Максимальная температура - максимум температуры воздуха на высоте 2 м над землей.
R - Количество осадков - Количество выпавших осадков за период времени, мм. При наведении курсора мыши на число - период времени, за который выпало указанное количество осадков.
R24 - Количество осадков - Количество выпавших осадков за 24 часа, мм.
S - Снежный покров - Высота снежного покрова, см. При наведении курсора мыши на число - состояние снежного покрова и степень покрытия местности в баллах.